Flag for Canada Weather past 2 weeks in Arviat, Nunavut Territory, Canada

Now
-13 °F

Passing clouds.


Feels Like: -33 °F
Forecast: -12 / 18 °F
Wind: 12 mph from Southwest

Location: Arviat Airport

Current Time: Mar 27, 2015 at 7:39:21 AM

Latest Report: Mar 27, 2015 at 7:00 AM


Visibility: 15 mi

Pressure: 29.91 "Hg

Humidity: 83%

Dew point: -17 °F

Location of ArviatLocation

Historic Weather in Arviat — Graph

°F

Arviat temperature yesterday

Maximum temperature yesterday: 5 °F (at 4:00 PM)
Minimum temperature yesterday: -11 °F (at 1:00 AM)
Average temperature yesterday: -5 °F

Past Weeks' High & Low Weather Summary

 TemperatureHumidityPressure
High30 °F (Mar 15, 5:00 AM)100% (Mar 14, 8:00 PM)30.53 "Hg (Mar 14, 8:00 PM)
Low-27 °F (Mar 12, 6:00 AM)61% (Mar 12, 8:00 AM)28.82 "Hg (Mar 15, 12:00 PM)
Average-7 °F81%29.96 "Hg
* Reported Mar 12 6:00 AM — Mar 27 6:00 AM, Arviat, Weather by CustomWeather, © 2015

Note: Actual official high and low records may vary slightly from our data, if they occured in-between our weather recording intervals... More about our weather records

Advertising

Arviat weather history for previous 24 hours

 ConditionsComfort  
Time TempWeatherWind HumidityBarometerVisibility
6:00 AM
Fri, Mar 27
-13 °FClear.10 mph83%29.94 "Hg9 mi
5:00 AM-13 °FClear.8 mph76%29.96 "Hg9 mi
4:00 AM-9 °FClear.8 mph84%29.97 "Hg9 mi
3:00 AM-13 °FClear.7 mph76%29.98 "Hg9 mi
2:00 AM-9 °FClear.7 mph84%30.00 "Hg9 mi
1:00 AM-8 °FClear.9 mph84%30.03 "Hg9 mi
12:00 AM-6 °FClear.8 mph77%30.05 "Hg9 mi
11:00 PM
Thu, Mar 26
-6 °FClear.10 mph77%30.07 "Hg9 mi
10:00 PM-8 °FClear.7 mph84%30.09 "Hg9 mi
9:00 PM-6 °FClear.9 mph84%30.11 "Hg9 mi
8:00 PM-4 °FSunny.9 mph84%30.11 "Hg9 mi
7:00 PM1 °FSunny.13 mph78%30.13 "Hg7 mi
6:00 PM1 °FSunny.9 mph85%30.14 "Hg9 mi
5:00 PM5 °FSunny.7 mph78%30.16 "Hg15 mi
4:00 PM5 °FSunny.12 mph72%30.19 "Hg15 mi
3:00 PM3 °FSunny.6 mph72%30.20 "Hg15 mi
2:00 PM1 °FSunny.8 mph71%30.22 "Hg15 mi
1:00 PM0 °FSunny.14 mph65%30.23 "Hg15 mi
12:00 PM-4 °FSunny.14 mph71%30.24 "Hg15 mi
11:00 AM-6 °FSunny.13 mph70%30.25 "Hg15 mi
10:00 AMN/ASunny.N/AN/AN/A15 mi
9:14 AMN/ASunny.N/AN/AN/A15 mi
8:00 AMN/ASunny.N/AN/AN/A15 mi
7:00 AMN/AClear.N/AN/AN/A15 mi
Weather by CustomWeather, © 2015

See weather overviewHow to use our weather pages